BCS34W LGTS-LOWL

Flight info

Callsign BCS34W
Flight time 1h 49m
Altitude 36000
Route FSK UN128 RUGAS DCT RAXAD DCT IBISI DCT SOMUN DCT SIVLA DCT OBUTI DCT EPOLA DCT LIMRA LIMRA2K
Aircraft B738/M-SDE2E3FGHIRWXY/LB1

Departure

Time 2026-04-21 15:58
Airport Thessaloniki Macedonia International Airport (LGTS)

Arrival

Time 2026-04-21 17:47
Airport Linz-Hörsching Airport (LOWL)
Time Latitude Longitude Altitude Speed Heading
2026-04-21 15:36 40.52138 22.98156 15 ft 0 kts 11°
2026-04-21 15:51 40.52124 22.98153 15 ft 4 kts 19°
2026-04-21 15:51 40.52103 22.98136 15 ft 4 kts 58°
2026-04-21 15:51 40.52098 22.98106 15 ft 2 kts 103°
2026-04-21 15:52 40.52099 22.98098 15 ft 0 kts 104°
2026-04-21 15:54 40.52096 22.98114 15 ft 6 kts 104°
2026-04-21 15:54 40.52080 22.98200 16 ft 12 kts 104°
2026-04-21 15:54 40.52061 22.98302 17 ft 11 kts 103°
2026-04-21 15:55 40.52043 22.98401 16 ft 11 kts 103°
2026-04-21 15:55 40.52025 22.98498 16 ft 11 kts 103°
2026-04-21 15:55 40.52008 22.98592 17 ft 10 kts 103°
2026-04-21 15:55 40.51975 22.98670 17 ft 10 kts 156°
2026-04-21 15:56 40.51906 22.98665 17 ft 10 kts 188°
2026-04-21 15:56 40.51839 22.98667 19 ft 10 kts 158°
2026-04-21 15:56 40.51777 22.98693 17 ft 9 kts 180°
2026-04-21 15:56 40.51712 22.98677 18 ft 10 kts 193°
2026-04-21 15:57 40.51685 22.98603 17 ft 10 kts 279°
2026-04-21 15:57 40.51742 22.98315 17 ft 66 kts 284°
2026-04-21 15:57 40.51910 22.97433 13 ft 130 kts 284°
2026-04-21 15:57 40.52164 22.96054 55 ft 175 kts 284°
2026-04-21 15:58 40.52444 22.94442 470 ft 194 kts 285°
2026-04-21 15:58 40.52793 22.92633 934 ft 206 kts 284°
2026-04-21 15:58 40.53198 22.90711 1103 ft 228 kts 285°
2026-04-21 15:58 40.53641 22.88651 1465 ft 239 kts 285°
2026-04-21 15:59 40.54125 22.86489 1713 ft 255 kts 294°
2026-04-21 15:59 40.55201 22.84652 2192 ft 263 kts 324°
2026-04-21 15:59 40.56894 22.83694 2797 ft 269 kts 351°
2026-04-21 15:59 40.58762 22.83842 3536 ft 274 kts 15°
2026-04-21 16:00 40.60491 22.84988 4186 ft 281 kts 34°
2026-04-21 16:00 40.61964 22.86703 4939 ft 285 kts 42°
2026-04-21 16:00 40.63388 22.88597 5440 ft 297 kts 42°
2026-04-21 16:00 40.64944 22.90450 6090 ft 298 kts 31°
2026-04-21 16:01 40.66660 22.91870 7151 ft 286 kts 27°
2026-04-21 16:01 40.68329 22.93231 7976 ft 286 kts 27°
2026-04-21 16:01 40.70077 22.94494 8727 ft 287 kts 21°
2026-04-21 16:01 40.71917 22.95543 9489 ft 289 kts 15°
2026-04-21 16:02 40.73835 22.96375 10240 ft 290 kts
2026-04-21 16:02 40.75826 22.96978 10791 ft 299 kts
2026-04-21 16:02 40.77926 22.97356 11247 ft 311 kts
2026-04-21 16:02 40.80134 22.97531 11561 ft 328 kts 358°
2026-04-21 16:03 40.82483 22.97640 11879 ft 343 kts 358°
2026-04-21 16:03 40.84895 22.97746 12535 ft 349 kts 358°
2026-04-21 16:03 40.87332 22.97861 13323 ft 351 kts 358°
2026-04-21 16:03 40.89764 22.97985 14041 ft 356 kts 358°
2026-04-21 16:04 40.92256 22.98117 14745 ft 359 kts 358°
2026-04-21 16:04 40.94773 22.98254 15459 ft 363 kts 357°
2026-04-21 16:04 40.97312 22.98395 16163 ft 367 kts 357°
2026-04-21 16:04 40.99874 22.98538 16855 ft 371 kts 357°
2026-04-21 16:05 41.02468 22.98683 17553 ft 375 kts 357°
2026-04-21 16:05 41.05091 22.98829 18224 ft 379 kts 357°
2026-04-21 16:05 41.07740 22.98964 18822 ft 382 kts 355°
2026-04-21 16:05 41.10342 22.98430 19294 ft 377 kts 335°
2026-04-21 16:06 41.12670 22.96950 19870 ft 375 kts 324°
2026-04-21 16:06 41.14825 22.94978 20424 ft 376 kts 321°
2026-04-21 16:06 41.15685 22.94161 20645 ft 378 kts 321°
2026-04-21 16:07 41.17343 22.92626 21000 ft 383 kts 322°
2026-04-21 16:07 41.18818 22.91301 21244 ft 389 kts 322°
2026-04-21 16:07 41.21863 22.88644 22051 ft 391 kts 323°
2026-04-21 16:08 41.25632 22.85368 23252 ft 388 kts 323°
2026-04-21 16:08 41.27910 22.83403 23718 ft 393 kts 323°
2026-04-21 16:08 41.30227 22.81420 24102 ft 396 kts 323°
2026-04-21 16:09 41.32527 22.79459 24663 ft 397 kts 325°
2026-04-21 16:09 41.35001 22.77793 25192 ft 401 kts 332°
2026-04-21 16:09 41.37593 22.76361 25644 ft 404 kts 333°
2026-04-21 16:09 41.40204 22.74958 26064 ft 407 kts 333°
2026-04-21 16:10 41.42845 22.73542 26481 ft 409 kts 333°
2026-04-21 16:10 41.45488 22.72115 26922 ft 410 kts 333°
2026-04-21 16:10 41.48137 22.70672 27345 ft 412 kts 332°
2026-04-21 16:10 41.50800 22.69209 27751 ft 413 kts 332°
2026-04-21 16:11 41.53470 22.67736 28179 ft 415 kts 332°
2026-04-21 16:11 41.56141 22.66257 28601 ft 416 kts 332°
2026-04-21 16:11 41.58787 22.64788 28961 ft 418 kts 332°
2026-04-21 16:11 41.61481 22.63291 29290 ft 421 kts 332°
2026-04-21 16:12 41.64186 22.61785 29658 ft 422 kts 332°
2026-04-21 16:12 41.66907 22.60271 30083 ft 423 kts 332°
2026-04-21 16:12 41.69616 22.58763 30513 ft 421 kts 332°
2026-04-21 16:12 41.72322 22.57261 30900 ft 421 kts 332°
2026-04-21 16:13 41.75028 22.55755 31216 ft 421 kts 332°
2026-04-21 16:13 41.77736 22.54239 31609 ft 421 kts 332°
2026-04-21 16:13 41.80437 22.52724 32056 ft 420 kts 332°
2026-04-21 16:13 41.83127 22.51218 32435 ft 419 kts 332°
2026-04-21 16:14 41.85817 22.49715 32791 ft 418 kts 332°
2026-04-21 16:14 41.88507 22.48207 33129 ft 418 kts 332°
2026-04-21 16:14 41.91189 22.46700 33465 ft 418 kts 332°
2026-04-21 16:14 41.93843 22.45208 33823 ft 418 kts 332°
2026-04-21 16:15 41.96516 22.43705 34236 ft 414 kts 332°
2026-04-21 16:15 41.99160 22.42219 34795 ft 407 kts 331°
2026-04-21 16:15 42.01778 22.40745 34969 ft 410 kts 331°
2026-04-21 16:16 42.07044 22.37769 34992 ft 413 kts 332°
2026-04-21 16:16 42.12304 22.34799 34994 ft 407 kts 332°
2026-04-21 16:17 42.17544 22.31832 35016 ft 406 kts 331°
2026-04-21 16:17 42.22733 22.28888 35019 ft 407 kts 331°
2026-04-21 16:18 42.27956 22.25920 35008 ft 406 kts 331°
2026-04-21 16:18 42.33005 22.22591 35018 ft 399 kts 323°
2026-04-21 16:19 42.37671 22.18574 35006 ft 399 kts 322°
2026-04-21 16:19 42.42353 22.14507 35026 ft 399 kts 322°
2026-04-21 16:20 42.47060 22.10457 35027 ft 401 kts 322°
2026-04-21 16:20 42.51785 22.06410 35033 ft 401 kts 322°
2026-04-21 16:21 42.56491 22.02376 35031 ft 402 kts 322°
2026-04-21 16:21 42.61231 21.98308 35026 ft 403 kts 322°
2026-04-21 16:22 42.65980 21.94224 35037 ft 403 kts 322°
2026-04-21 16:22 42.70695 21.90161 35051 ft 403 kts 322°
2026-04-21 16:23 42.75457 21.86051 35046 ft 404 kts 322°
2026-04-21 16:23 42.80216 21.81934 35030 ft 405 kts 322°
2026-04-21 16:24 42.84943 21.77839 35026 ft 405 kts 322°
2026-04-21 16:24 42.89707 21.73703 35045 ft 406 kts 323°
2026-04-21 16:25 42.94461 21.69546 35026 ft 404 kts 320°
2026-04-21 16:25 42.98545 21.64414 35033 ft 397 kts 308°
2026-04-21 16:26 43.02226 21.58793 35025 ft 396 kts 308°
2026-04-21 16:26 43.05905 21.53176 35026 ft 396 kts 308°
2026-04-21 16:27 43.09569 21.47605 35029 ft 396 kts 308°
2026-04-21 16:27 43.13251 21.42009 35017 ft 395 kts 308°
2026-04-21 16:28 43.16929 21.36415 35037 ft 394 kts 309°
2026-04-21 16:28 43.20585 21.30843 35029 ft 394 kts 309°
2026-04-21 16:29 43.24252 21.25244 35023 ft 394 kts 309°
2026-04-21 16:29 43.27918 21.19635 35025 ft 393 kts 308°
2026-04-21 16:30 43.31545 21.14076 35034 ft 393 kts 308°
2026-04-21 16:30 43.35188 21.08480 35038 ft 393 kts 308°
2026-04-21 16:31 43.38831 21.02873 35033 ft 393 kts 308°
2026-04-21 16:31 43.42456 20.97284 35039 ft 393 kts 308°
2026-04-21 16:32 43.46103 20.91650 35031 ft 393 kts 308°
2026-04-21 16:32 43.49735 20.86027 35019 ft 392 kts 308°
2026-04-21 16:33 43.53329 20.80454 35015 ft 390 kts 308°
2026-04-21 16:33 43.56923 20.74870 35026 ft 389 kts 308°
2026-04-21 16:34 43.60521 20.69266 35014 ft 388 kts 308°
2026-04-21 16:34 43.64077 20.63719 35022 ft 387 kts 308°
2026-04-21 16:35 43.67650 20.58133 35017 ft 387 kts 308°
2026-04-21 16:35 43.71218 20.52546 35032 ft 387 kts 307°
2026-04-21 16:36 43.74759 20.46988 35025 ft 387 kts 307°
2026-04-21 16:36 43.78315 20.41398 35019 ft 386 kts 307°
2026-04-21 16:37 43.81869 20.35799 35021 ft 386 kts 307°
2026-04-21 16:37 43.85408 20.30213 35024 ft 386 kts 307°
2026-04-21 16:38 43.88951 20.24609 35038 ft 386 kts 307°
2026-04-21 16:38 43.92467 20.19037 35015 ft 386 kts 307°
2026-04-21 16:39 43.96000 20.13427 35024 ft 385 kts 307°
2026-04-21 16:39 43.99528 20.07815 35036 ft 385 kts 307°
2026-04-21 16:40 44.03055 20.02193 35028 ft 386 kts 307°
2026-04-21 16:40 44.06575 19.96571 35034 ft 385 kts 307°
2026-04-21 16:41 44.09497 19.91895 35031 ft 385 kts 307°
2026-04-21 16:41 44.13571 19.85363 35032 ft 383 kts 307°
2026-04-21 16:42 44.17062 19.79756 35031 ft 382 kts 307°
2026-04-21 16:42 44.20547 19.74145 35028 ft 382 kts 307°
2026-04-21 16:43 44.24015 19.68552 35025 ft 381 kts 307°
2026-04-21 16:43 44.27483 19.62947 35029 ft 380 kts 306°
2026-04-21 16:44 44.30910 19.57396 35021 ft 379 kts 306°
2026-04-21 16:44 44.34362 19.51795 35037 ft 379 kts 306°
2026-04-21 16:45 44.37800 19.46206 35036 ft 378 kts 306°
2026-04-21 16:45 44.41218 19.40638 35024 ft 378 kts 306°
2026-04-21 16:46 44.44640 19.35053 35027 ft 378 kts 306°
2026-04-21 16:46 44.48043 19.29486 35026 ft 378 kts 306°
2026-04-21 16:47 44.51465 19.23878 35034 ft 378 kts 306°
2026-04-21 16:47 44.54886 19.18262 35039 ft 379 kts 306°
2026-04-21 16:48 44.58292 19.12660 35042 ft 379 kts 306°
2026-04-21 16:48 44.61867 19.07193 35041 ft 380 kts 310°
2026-04-21 16:49 44.65607 19.01950 35028 ft 379 kts 310°
2026-04-21 16:49 44.69345 18.96708 35030 ft 378 kts 310°
2026-04-21 16:50 44.72427 18.92355 35036 ft 377 kts 310°
2026-04-21 16:50 44.76119 18.87116 35036 ft 376 kts 310°
2026-04-21 16:51 44.79774 18.81913 35068 ft 375 kts 310°
2026-04-21 16:51 44.83449 18.76670 35045 ft 376 kts 310°
2026-04-21 16:52 44.87130 18.71409 35048 ft 377 kts 310°
2026-04-21 16:52 44.90818 18.66127 35047 ft 378 kts 310°
2026-04-21 16:53 44.94512 18.60828 35042 ft 379 kts 310°
2026-04-21 16:53 44.98213 18.55507 35039 ft 380 kts 310°
2026-04-21 16:54 45.01895 18.50204 35043 ft 380 kts 310°
2026-04-21 16:54 45.05603 18.44852 35047 ft 381 kts 310°
2026-04-21 16:55 45.09326 18.39469 35055 ft 383 kts 310°
2026-04-21 16:55 45.12979 18.33944 35044 ft 384 kts 308°
2026-04-21 16:56 45.16515 18.28245 35052 ft 385 kts 308°
2026-04-21 16:56 45.20041 18.22545 35048 ft 387 kts 308°
2026-04-21 16:57 45.23608 18.16804 35051 ft 388 kts 308°
2026-04-21 16:57 45.27198 18.11035 35051 ft 389 kts 308°
2026-04-21 16:58 45.30785 18.05266 35050 ft 389 kts 308°
2026-04-21 16:58 45.34349 17.99523 35054 ft 389 kts 308°
2026-04-21 16:59 45.37934 17.93735 35054 ft 388 kts 308°
2026-04-21 16:59 45.41501 17.87963 35050 ft 387 kts 308°
2026-04-21 17:00 45.45036 17.82232 35052 ft 386 kts 308°
2026-04-21 17:00 45.48007 17.77405 35051 ft 386 kts 308°
2026-04-21 17:01 45.52113 17.70720 35056 ft 384 kts 308°
2026-04-21 17:01 45.55632 17.64980 35052 ft 384 kts 308°
2026-04-21 17:02 45.59124 17.59270 35057 ft 383 kts 308°
2026-04-21 17:02 45.62631 17.53523 35066 ft 384 kts 308°
2026-04-21 17:03 45.66155 17.47736 35064 ft 386 kts 308°
2026-04-21 17:03 45.69693 17.41913 35062 ft 389 kts 308°
2026-04-21 17:04 45.73232 17.36079 35056 ft 391 kts 308°
2026-04-21 17:04 45.76809 17.30169 35061 ft 393 kts 308°
2026-04-21 17:05 45.80373 17.24269 35061 ft 394 kts 308°
2026-04-21 17:05 45.83969 17.18303 35060 ft 395 kts 308°
2026-04-21 17:06 45.87563 17.12326 35059 ft 395 kts 308°
2026-04-21 17:06 45.91130 17.06382 35070 ft 395 kts 308°
2026-04-21 17:07 45.94715 17.00395 35067 ft 395 kts 308°
2026-04-21 17:07 45.98304 16.94389 35070 ft 395 kts 308°
2026-04-21 17:08 46.01878 16.88394 35068 ft 394 kts 308°
2026-04-21 17:08 46.05422 16.82437 35069 ft 394 kts 308°
2026-04-21 17:09 46.10772 16.73420 35074 ft 394 kts 308°
2026-04-21 17:09 46.14335 16.67398 35073 ft 394 kts 308°
2026-04-21 17:10 46.17875 16.61400 35083 ft 394 kts 308°
2026-04-21 17:10 46.21437 16.55354 35082 ft 395 kts 308°
2026-04-21 17:11 46.25008 16.49277 35083 ft 397 kts 308°
2026-04-21 17:11 46.28565 16.43212 35079 ft 398 kts 308°
2026-04-21 17:12 46.32158 16.37073 35081 ft 399 kts 308°
2026-04-21 17:12 46.35759 16.30907 35080 ft 400 kts 308°
2026-04-21 17:13 46.39599 16.25097 35081 ft 404 kts 317°
2026-04-21 17:13 46.43941 16.19905 35104 ft 404 kts 318°
2026-04-21 17:14 46.48291 16.14708 35090 ft 405 kts 317°
2026-04-21 17:14 46.52607 16.09506 35084 ft 405 kts 317°
2026-04-21 17:15 46.56941 16.04250 35083 ft 405 kts 317°
2026-04-21 17:15 46.61270 15.98983 35084 ft 405 kts 317°
2026-04-21 17:16 46.65568 15.93741 35094 ft 405 kts 317°
2026-04-21 17:16 46.69901 15.88444 35112 ft 405 kts 317°
2026-04-21 17:17 46.74191 15.83190 35099 ft 405 kts 317°
2026-04-21 17:17 46.78512 15.77886 35091 ft 406 kts 317°
2026-04-21 17:18 46.82838 15.72564 35083 ft 406 kts 317°
2026-04-21 17:18 46.87154 15.67244 35067 ft 401 kts 317°
2026-04-21 17:19 46.89271 15.64632 34817 ft 395 kts 317°
2026-04-21 17:19 46.91348 15.62067 34541 ft 387 kts 317°
2026-04-21 17:19 46.93399 15.59530 34164 ft 383 kts 317°
2026-04-21 17:19 46.95402 15.57049 33741 ft 380 kts 317°
2026-04-21 17:20 46.97414 15.54554 33305 ft 377 kts 317°
2026-04-21 17:20 46.99410 15.52075 32898 ft 374 kts 317°
2026-04-21 17:20 47.01386 15.49620 32498 ft 371 kts 317°
2026-04-21 17:20 47.03349 15.47178 32104 ft 368 kts 317°
2026-04-21 17:21 47.05290 15.44761 31725 ft 364 kts 317°
2026-04-21 17:21 47.07220 15.42355 31350 ft 361 kts 317°
2026-04-21 17:21 47.09125 15.39980 30982 ft 359 kts 317°
2026-04-21 17:21 47.11020 15.37614 30638 ft 356 kts 317°
2026-04-21 17:22 47.12268 15.36053 30395 ft 354 kts 317°
2026-04-21 17:22 47.14768 15.32927 29859 ft 351 kts 317°
2026-04-21 17:22 47.16595 15.30638 29466 ft 347 kts 317°
2026-04-21 17:22 47.18425 15.28345 29072 ft 343 kts 317°
2026-04-21 17:23 47.20235 15.26074 28723 ft 339 kts 317°
2026-04-21 17:23 47.22029 15.23821 28333 ft 336 kts 317°
2026-04-21 17:23 47.23795 15.21601 27938 ft 333 kts 317°
2026-04-21 17:23 47.25549 15.19395 27587 ft 329 kts 317°
2026-04-21 17:24 47.27282 15.17214 27248 ft 326 kts 317°
2026-04-21 17:24 47.28996 15.15055 26872 ft 323 kts 317°
2026-04-21 17:24 47.30681 15.12928 26520 ft 321 kts 317°
2026-04-21 17:24 47.32377 15.10787 26171 ft 319 kts 317°
2026-04-21 17:25 47.34058 15.08661 25821 ft 317 kts 317°
2026-04-21 17:25 47.35708 15.06573 25471 ft 315 kts 317°
2026-04-21 17:25 47.37365 15.04476 25145 ft 313 kts 317°
2026-04-21 17:25 47.39019 15.02381 24800 ft 311 kts 317°
2026-04-21 17:26 47.40656 15.00304 24453 ft 310 kts 317°
2026-04-21 17:26 47.42287 14.98234 24131 ft 308 kts 317°
2026-04-21 17:26 47.43909 14.96173 23795 ft 307 kts 317°
2026-04-21 17:26 47.45525 14.94119 23395 ft 305 kts 317°
2026-04-21 17:27 47.47136 14.92070 23047 ft 304 kts 317°
2026-04-21 17:27 47.48731 14.90039 22688 ft 301 kts 317°
2026-04-21 17:27 47.50341 14.88068 22390 ft 300 kts 321°
2026-04-21 17:27 47.52011 14.86255 22070 ft 301 kts 322°
2026-04-21 17:28 47.53729 14.84461 21736 ft 304 kts 323°
2026-04-21 17:28 47.55493 14.82630 21403 ft 313 kts 323°
2026-04-21 17:28 47.57286 14.80763 21049 ft 315 kts 323°
2026-04-21 17:28 47.59073 14.78893 20680 ft 314 kts 323°
2026-04-21 17:29 47.60827 14.77050 20347 ft 311 kts 323°
2026-04-21 17:29 47.62588 14.75193 20024 ft 309 kts 323°
2026-04-21 17:29 47.64345 14.73336 19678 ft 307 kts 323°
2026-04-21 17:29 47.66081 14.71498 19347 ft 305 kts 323°
2026-04-21 17:30 47.67803 14.69672 19016 ft 304 kts 323°
2026-04-21 17:30 47.69516 14.67854 18688 ft 302 kts 323°
2026-04-21 17:30 47.71201 14.66064 18374 ft 300 kts 323°
2026-04-21 17:30 47.72898 14.64258 17998 ft 299 kts 323°
2026-04-21 17:31 47.74585 14.62463 17632 ft 296 kts 323°
2026-04-21 17:31 47.75692 14.61282 17441 ft 294 kts 323°
2026-04-21 17:31 47.77350 14.59516 17109 ft 292 kts 323°
2026-04-21 17:31 47.78999 14.57757 16780 ft 290 kts 323°
2026-04-21 17:32 47.80638 14.56006 16456 ft 288 kts 323°
2026-04-21 17:32 47.82265 14.54267 16152 ft 287 kts 323°
2026-04-21 17:32 47.83867 14.52554 15840 ft 285 kts 323°
2026-04-21 17:32 47.85477 14.50832 15517 ft 284 kts 323°
2026-04-21 17:33 47.87080 14.49115 15204 ft 283 kts 324°
2026-04-21 17:33 47.88676 14.47405 14900 ft 281 kts 324°
2026-04-21 17:33 47.90271 14.45693 14583 ft 281 kts 324°
2026-04-21 17:33 47.91770 14.43876 14121 ft 285 kts 314°
2026-04-21 17:34 47.93091 14.41629 13645 ft 289 kts 310°
2026-04-21 17:34 47.94361 14.39295 13275 ft 289 kts 309°
2026-04-21 17:34 47.95626 14.36972 12943 ft 287 kts 310°
2026-04-21 17:34 47.96891 14.34677 12637 ft 285 kts 310°
2026-04-21 17:35 47.98300 14.32635 12294 ft 284 kts 328°
2026-04-21 17:35 48.00155 14.31666 11871 ft 286 kts 355°
2026-04-21 17:35 48.02121 14.32043 11470 ft 287 kts 21°
2026-04-21 17:35 48.03852 14.33524 11070 ft 286 kts 34°
2026-04-21 17:36 48.05332 14.35476 10599 ft 285 kts 48°
2026-04-21 17:36 48.06573 14.37740 10275 ft 277 kts 50°
2026-04-21 17:36 48.07799 14.39948 9779 ft 276 kts 48°
2026-04-21 17:36 48.09046 14.42107 9210 ft 277 kts 49°
2026-04-21 17:37 48.10263 14.44306 8810 ft 272 kts 50°
2026-04-21 17:37 48.11477 14.46535 8207 ft 281 kts 51°
2026-04-21 17:37 48.12703 14.48804 7734 ft 276 kts 50°
2026-04-21 17:37 48.13914 14.50986 7374 ft 268 kts 50°
2026-04-21 17:38 48.15104 14.53080 6984 ft 262 kts 49°
2026-04-21 17:38 48.16220 14.55232 6510 ft 260 kts 61°
2026-04-21 17:38 48.16771 14.57760 6146 ft 254 kts 82°
2026-04-21 17:38 48.16907 14.60391 5757 ft 252 kts 86°
2026-04-21 17:39 48.16994 14.62992 5595 ft 247 kts 79°
2026-04-21 17:39 48.17762 14.65206 5367 ft 247 kts 41°
2026-04-21 17:39 48.19282 14.66289 5244 ft 242 kts 12°
2026-04-21 17:39 48.20969 14.66403 4939 ft 244 kts 359°
2026-04-21 17:40 48.22657 14.66007 4607 ft 248 kts 345°
2026-04-21 17:40 48.24144 14.64760 4413 ft 247 kts 315°
2026-04-21 17:40 48.24934 14.62520 4131 ft 244 kts 281°
2026-04-21 17:40 48.24911 14.60064 4058 ft 234 kts 263°
2026-04-21 17:41 48.24729 14.57666 4088 ft 230 kts 266°
2026-04-21 17:41 48.24623 14.55276 4065 ft 227 kts 268°
2026-04-21 17:41 48.24537 14.52980 4054 ft 212 kts 268°
2026-04-21 17:41 48.24459 14.50850 4000 ft 199 kts 268°
2026-04-21 17:42 48.24384 14.48794 3962 ft 194 kts 268°
2026-04-21 17:42 48.24313 14.46858 3928 ft 177 kts 268°
2026-04-21 17:42 48.24246 14.45017 3979 ft 175 kts 268°
2026-04-21 17:42 48.24179 14.43190 3987 ft 177 kts 268°
2026-04-21 17:43 48.24113 14.41352 3808 ft 179 kts 268°
2026-04-21 17:43 48.24047 14.39526 3578 ft 164 kts 268°
2026-04-21 17:43 48.23989 14.37926 3356 ft 149 kts 268°
2026-04-21 17:43 48.23934 14.36378 3163 ft 146 kts 268°
2026-04-21 17:44 48.23880 14.34880 2951 ft 145 kts 268°
2026-04-21 17:44 48.23827 14.33381 2764 ft 144 kts 268°
2026-04-21 17:44 48.23772 14.31879 2573 ft 144 kts 268°
2026-04-21 17:44 48.23697 14.30395 2389 ft 142 kts 266°
2026-04-21 17:45 48.23629 14.28911 2156 ft 143 kts 268°
2026-04-21 17:45 48.23606 14.27437 1921 ft 141 kts 270°
2026-04-21 17:45 48.23569 14.25988 1713 ft 137 kts 265°
2026-04-21 17:45 48.23515 14.24590 1509 ft 132 kts 265°
2026-04-21 17:46 48.23478 14.23220 1323 ft 129 kts 263°
2026-04-21 17:46 48.23430 14.21894 1170 ft 125 kts 263°
2026-04-21 17:46 48.23383 14.20616 1046 ft 121 kts 263°
2026-04-21 17:46 48.23340 14.19344 981 ft 119 kts 264°
2026-04-21 17:47 48.23303 14.18293 981 ft 80 kts 266°
2026-04-21 17:47 48.23294 14.17961 987 ft 12 kts 290°
2026-04-21 17:47 48.23373 14.17891 981 ft 18 kts
2026-04-21 17:47 48.23489 14.17940 987 ft 13 kts 15°
2026-04-21 17:48 48.23549 14.17966 979 ft 13 kts 16°
2026-04-21 17:48 48.23664 14.18015 982 ft 13 kts 20°
2026-04-21 17:48 48.23717 14.18102 984 ft 11 kts 78°
2026-04-21 17:48 48.23721 14.18205 980 ft 9 kts 87°
2026-04-21 17:49 48.23725 14.18298 980 ft 9 kts 87°
2026-04-21 17:49 48.23728 14.18389 982 ft 9 kts 86°
2026-04-21 17:49 48.23732 14.18496 979 ft 13 kts 86°
2026-04-21 17:49 48.23736 14.18654 978 ft 16 kts 88°
2026-04-21 17:50 48.23741 14.18813 984 ft 15 kts 87°
2026-04-21 17:50 48.23746 14.18963 976 ft 14 kts 87°
2026-04-21 17:50 48.23753 14.19065 976 ft 7 kts 58°
2026-04-21 17:50 48.23793 14.19079 976 ft 1 kts 30°
2026-04-21 17:51 48.23799 14.19107 981 ft 7 kts 75°
2026-04-21 17:51 48.23800 14.19152 975 ft 0 kts 88°